Hourly Data Report for October 23, 2015

All times are specified in Local Standard Time (LST). Add 1 hour to adjust for Daylight Saving Time where and when it is observed.

ARVIAT A
NUNAVUT

61°05'38.000" N
94°04'18.000" W
10.40 m
2300427
71174
YEK

Download Data

Hourly Data (October 2015)
Hourly Data Report for October 23, 2015
Temp Definition
°C
Dew Point Temp Definition
°C
Rel Hum Definition
%
Wind Dir Definition
10's deg

Wind Spd Definition
km/h
Visibility Definition
km
Stn Press Definition
kPa
Hmdx Definition


Wind Chill Definition


Weather Definition


TIME
00:00 Legend Double Dagger -0.8 -0.9 99 20 32 16.1 100.65   -8 LegendNANA
01:00 Legend Double Dagger -0.5 -0.6 99 20 30 16.1 100.56   -7 LegendNANA
02:00 Legend Double Dagger -0.5 -0.6 99 20 26 16.1 100.48   -7 LegendNANA
03:00 Legend Double Dagger -0.5 -0.6 99 20 32 16.1 100.42   -7 LegendNANA
04:00 Legend Double Dagger -0.3 -0.3 100 21 24 12.9 100.39   -6 LegendNANA
05:00 Legend Double Dagger -0.3 -0.3 100 20 22 16.1 100.30   -6 LegendNANA
06:00 Legend Double Dagger -0.3 -0.3 100 20 24 6.4 100.21   -6 Fog
07:00 Legend Double Dagger -0.2 -0.2 100 21 22 4.0 100.12   -6 Fog
08:00 Legend Double Dagger 0.0 0.0 100 20 22 2.0 100.05   -6 Fog
09:00 Legend Double Dagger 0.3 0.3 100 21 28 16.1 99.99     LegendNANA
10:00 Legend Double Dagger 0.5 0.5 100 21 24 14.5 99.96     LegendNANA
11:00 Legend Double Dagger 0.7 0.7 100 22 24 16.1 99.89     LegendNANA
12:00 Legend Double Dagger 0.8 0.8 100 23 22 16.1 99.86     LegendNANA
13:00 Legend Double Dagger 1.1 1.0 99 24 22 16.1 99.82     LegendNANA
14:00 Legend Double Dagger 1.2 0.9 98 25 22 16.1 99.75     LegendNANA
15:00 Legend Double Dagger 1.5 0.9 96 26 26 16.1 99.73     LegendNANA
16:00 Legend Double Dagger 1.0 0.4 96 26 18 16.1 99.72     LegendNANA
17:00 Legend Double Dagger 0.7 0.0 95 25 18 16.1 99.72     LegendNANA
18:00 Legend Double Dagger -0.4 -0.8 97 25 22 16.1 99.73   -6 LegendNANA
19:00 Legend Double Dagger 0.4 -0.6 93 26 22 16.1 99.71     LegendNANA
20:00 Legend Double Dagger 0.5 -0.4 94 27 22 16.1 99.69     LegendNANA
21:00 Legend Double Dagger -1.0 -2.1 93 33 54 16.1 99.75   -10 LegendNANA
22:00 Legend Double Dagger -5.2 -6.4 91 33 55 16.1 99.91   -16 LegendNANA
23:00 Legend Double Dagger -7.3 -8.5 91 33 59 16.1 99.99   -19 LegendNANA

Notes on Data Quality.

Legend

  • E = Estimated
  • M = Missing
  • NA = Not Available
  • ‡ = Partner data that is not subject to review by the National Climate Archives
Date modified: